AAL1 KJFK-KLAX

Flight info

Callsign AAL1
Flight time N/A
Altitude 38000
Route DEEZZ6 CANDR J60 DJB CPONE/N0484F400 JOT J60 HVE PROMT Q88 HAKMN ANJLL4
Aircraft B772/H-SDE2E3FGHIJ5LORVWXY/LB1D1

Departure

Time N/A
Airport John F. Kennedy International Airport (KJFK)

Arrival

Time 2026-04-20 17:00
Airport Los Angeles International Airport (KLAX)
Time Latitude Longitude Altitude Speed Heading
2026-04-20 14:24 40.93833 -96.63868 40207 ft 457 kts 265°
2026-04-20 14:24 40.92875 -96.70784 40210 ft 457 kts 265°
2026-04-20 14:25 40.90926 -96.89455 40208 ft 455 kts 268°
2026-04-20 14:26 40.90156 -96.97760 40205 ft 455 kts 268°
2026-04-20 14:26 40.89389 -97.05804 40205 ft 455 kts 268°
2026-04-20 14:27 40.88581 -97.14148 40198 ft 455 kts 267°
2026-04-20 14:27 40.87769 -97.22443 40187 ft 455 kts 267°
2026-04-20 14:28 40.86952 -97.30742 40175 ft 455 kts 267°
2026-04-20 14:28 40.86131 -97.39029 40172 ft 455 kts 267°
2026-04-20 14:29 40.85307 -97.47271 40164 ft 455 kts 267°
2026-04-20 14:29 40.84542 -97.54876 40171 ft 455 kts 267°
2026-04-20 14:30 40.83702 -97.63171 40159 ft 456 kts 267°
2026-04-20 14:30 40.82856 -97.71458 40152 ft 456 kts 267°
2026-04-20 14:31 40.82010 -97.79693 40154 ft 456 kts 266°
2026-04-20 14:31 40.81151 -97.87992 40146 ft 456 kts 266°
2026-04-20 14:32 40.80287 -97.96278 40146 ft 456 kts 266°
2026-04-20 14:32 40.79416 -98.04570 40146 ft 456 kts 266°
2026-04-20 14:33 40.78540 -98.12852 40143 ft 456 kts 266°
2026-04-20 14:33 40.77664 -98.21088 40143 ft 456 kts 266°
2026-04-20 14:34 40.76776 -98.29378 40139 ft 456 kts 266°
2026-04-20 14:34 40.75882 -98.37659 40136 ft 456 kts 266°
2026-04-20 14:35 40.74981 -98.45941 40145 ft 456 kts 266°
2026-04-20 14:35 40.74081 -98.54167 40140 ft 456 kts 265°
2026-04-20 14:36 40.73169 -98.62445 40136 ft 456 kts 265°
2026-04-20 14:36 40.72253 -98.70715 40127 ft 456 kts 265°
2026-04-20 14:37 40.71332 -98.78980 40131 ft 455 kts 265°
2026-04-20 14:37 40.70412 -98.87178 40136 ft 455 kts 265°
2026-04-20 14:38 40.69481 -98.95418 40134 ft 455 kts 265°
2026-04-20 14:38 40.68544 -99.03653 40138 ft 454 kts 265°
2026-04-20 14:39 40.67603 -99.11876 40136 ft 454 kts 265°
2026-04-20 14:39 40.66656 -99.20094 40131 ft 454 kts 265°
2026-04-20 14:40 40.65712 -99.28238 40115 ft 453 kts 264°
2026-04-20 14:40 40.64753 -99.36455 40119 ft 453 kts 264°
2026-04-20 14:41 40.63790 -99.44652 40117 ft 453 kts 264°
2026-04-20 14:41 40.62821 -99.52854 40115 ft 453 kts 264°
2026-04-20 14:42 40.61855 -99.60984 40120 ft 453 kts 264°
2026-04-20 14:42 40.60874 -99.69177 40121 ft 453 kts 264°
2026-04-20 14:43 40.59889 -99.77364 40118 ft 453 kts 264°
2026-04-20 14:43 40.58921 -99.85354 40118 ft 453 kts 264°
2026-04-20 14:44 40.57924 -99.93537 40112 ft 453 kts 264°
2026-04-20 14:44 40.56928 -100.01663 40104 ft 453 kts 264°
2026-04-20 14:45 40.55918 -100.09847 40105 ft 453 kts 263°
2026-04-20 14:45 40.54903 -100.18033 40107 ft 453 kts 263°
2026-04-20 14:46 40.53882 -100.26213 40097 ft 453 kts 263°
2026-04-20 14:46 40.52862 -100.34338 40102 ft 454 kts 263°
2026-04-20 14:47 40.51829 -100.42511 40095 ft 454 kts 263°
2026-04-20 14:48 40.50268 -100.54782 40103 ft 454 kts 263°
2026-04-20 14:48 40.49221 -100.62954 40107 ft 454 kts 263°
2026-04-20 14:49 40.48175 -100.71072 40095 ft 454 kts 263°
2026-04-20 14:49 40.47114 -100.79257 40096 ft 454 kts 263°
2026-04-20 14:50 40.46050 -100.87432 40101 ft 455 kts 263°
2026-04-20 14:50 40.44973 -100.95616 40091 ft 455 kts 262°
2026-04-20 14:51 40.43878 -101.03738 40090 ft 455 kts 262°
2026-04-20 14:51 40.42766 -101.11909 40087 ft 455 kts 262°
2026-04-20 14:52 40.41650 -101.20091 40090 ft 455 kts 262°
2026-04-20 14:52 40.40531 -101.28253 40097 ft 455 kts 262°
2026-04-20 14:53 40.39406 -101.36430 40104 ft 455 kts 262°
2026-04-20 14:53 40.38283 -101.44543 40112 ft 455 kts 262°
2026-04-20 14:54 40.37147 -101.52709 40118 ft 455 kts 262°
2026-04-20 14:54 40.36005 -101.60873 40116 ft 455 kts 262°
2026-04-20 14:55 40.34864 -101.68984 40112 ft 455 kts 261°
2026-04-20 14:55 40.33711 -101.77138 40105 ft 455 kts 261°
2026-04-20 14:56 40.32551 -101.85300 40093 ft 455 kts 261°
2026-04-20 14:56 40.31385 -101.93460 40081 ft 456 kts 261°
2026-04-20 14:57 40.30221 -102.01561 40061 ft 456 kts 261°
2026-04-20 14:57 40.29043 -102.09722 40059 ft 456 kts 261°
2026-04-20 14:58 40.27857 -102.17891 40054 ft 457 kts 261°
2026-04-20 14:58 40.26664 -102.26068 40047 ft 457 kts 261°
2026-04-20 14:59 40.25466 -102.34234 40038 ft 457 kts 261°
2026-04-20 14:59 40.24268 -102.42360 40033 ft 457 kts 261°
2026-04-20 15:00 40.23057 -102.50537 40024 ft 458 kts 261°
2026-04-20 15:00 40.21839 -102.58713 40017 ft 458 kts 261°
2026-04-20 15:01 40.20616 -102.66883 40016 ft 458 kts 260°
2026-04-20 15:01 40.19395 -102.74997 40011 ft 458 kts 260°
2026-04-20 15:02 40.18160 -102.83170 40041 ft 458 kts 260°
2026-04-20 15:02 40.16917 -102.91345 40075 ft 458 kts 260°
2026-04-20 15:03 40.15671 -102.99508 40110 ft 458 kts 260°
2026-04-20 15:03 40.14426 -103.07622 40142 ft 458 kts 260°
2026-04-20 15:04 40.13166 -103.15787 40156 ft 458 kts 260°
2026-04-20 15:04 40.11901 -103.23955 40157 ft 459 kts 259°
2026-04-20 15:05 40.10629 -103.32118 40152 ft 459 kts 259°
2026-04-20 15:05 40.09351 -103.40287 40123 ft 459 kts 259°
2026-04-20 15:06 40.08074 -103.48402 40099 ft 459 kts 259°
2026-04-20 15:06 40.06783 -103.56574 40085 ft 460 kts 259°
2026-04-20 15:07 40.05487 -103.64740 40075 ft 460 kts 259°
2026-04-20 15:07 40.04182 -103.72914 40082 ft 460 kts 259°
2026-04-20 15:08 40.02881 -103.81032 40073 ft 460 kts 259°
2026-04-20 15:08 40.01566 -103.89200 40068 ft 460 kts 259°
2026-04-20 15:09 40.00266 -103.97228 40058 ft 460 kts 259°
2026-04-20 15:09 39.98958 -104.05274 40050 ft 460 kts 259°
2026-04-20 15:10 39.97635 -104.13376 40048 ft 460 kts 259°
2026-04-20 15:10 39.96352 -104.21199 40079 ft 460 kts 259°
2026-04-20 15:11 39.95008 -104.29351 40104 ft 460 kts 259°
2026-04-20 15:11 39.93659 -104.37496 40135 ft 460 kts 258°
2026-04-20 15:12 39.92315 -104.45581 40158 ft 460 kts 258°
2026-04-20 15:12 39.90957 -104.53712 40172 ft 459 kts 258°
2026-04-20 15:13 39.89593 -104.61842 40183 ft 459 kts 258°
2026-04-20 15:13 39.88382 -104.68568 40183 ft 459 kts 257°
2026-04-20 15:14 39.86563 -104.77944 40180 ft 460 kts 257°
2026-04-20 15:14 39.84993 -104.86010 40158 ft 460 kts 257°
2026-04-20 15:15 39.83432 -104.94080 40171 ft 460 kts 257°
2026-04-20 15:15 39.81872 -105.02158 40183 ft 460 kts 257°
2026-04-20 15:16 39.80315 -105.10186 40191 ft 461 kts 257°
2026-04-20 15:16 39.78741 -105.18273 40179 ft 461 kts 257°
2026-04-20 15:17 39.77160 -105.26355 40155 ft 462 kts 256°
2026-04-20 15:17 39.75840 -105.33079 40141 ft 462 kts 256°
2026-04-20 15:18 39.74243 -105.41184 40129 ft 463 kts 256°
2026-04-20 15:18 39.72641 -105.49291 40106 ft 464 kts 256°
2026-04-20 15:19 39.71040 -105.57353 40117 ft 463 kts 256°
2026-04-20 15:19 39.69428 -105.65439 40127 ft 462 kts 256°
2026-04-20 15:20 39.67815 -105.73493 40134 ft 460 kts 256°
2026-04-20 15:20 39.66202 -105.81518 40154 ft 459 kts 256°
2026-04-20 15:21 39.64590 -105.89514 40162 ft 458 kts 256°
2026-04-20 15:21 39.62985 -105.97442 40169 ft 457 kts 256°
2026-04-20 15:22 39.61364 -106.05415 40175 ft 457 kts 256°
2026-04-20 15:22 39.59738 -106.13387 40184 ft 457 kts 256°
2026-04-20 15:23 39.58110 -106.21337 40193 ft 456 kts 256°
2026-04-20 15:23 39.56486 -106.29239 40205 ft 457 kts 256°
2026-04-20 15:24 39.54845 -106.37189 40228 ft 457 kts 256°
2026-04-20 15:24 39.53208 -106.45093 40239 ft 458 kts 256°
2026-04-20 15:25 39.51554 -106.53052 40237 ft 457 kts 256°
2026-04-20 15:25 39.49891 -106.61016 40270 ft 458 kts 256°
2026-04-20 15:26 39.48232 -106.68936 40281 ft 460 kts 256°
2026-04-20 15:26 39.46554 -106.76927 40298 ft 461 kts 255°
2026-04-20 15:27 39.44866 -106.84931 40301 ft 461 kts 255°
2026-04-20 15:27 39.43129 -106.92935 40295 ft 462 kts 254°
2026-04-20 15:28 39.41168 -107.00793 40256 ft 463 kts 252°
2026-04-20 15:28 39.39134 -107.08690 40242 ft 463 kts 252°
2026-04-20 15:29 39.37118 -107.16601 40225 ft 463 kts 253°
2026-04-20 15:29 39.35117 -107.24528 40188 ft 464 kts 253°
2026-04-20 15:30 39.33132 -107.32388 40169 ft 464 kts 253°
2026-04-20 15:30 39.31128 -107.40300 40177 ft 464 kts 252°
2026-04-20 15:31 39.29116 -107.48216 40200 ft 464 kts 252°
2026-04-20 15:31 39.27097 -107.56128 40200 ft 464 kts 252°
2026-04-20 15:32 39.25084 -107.63993 40205 ft 465 kts 252°
2026-04-20 15:32 39.23051 -107.71910 40198 ft 465 kts 252°
2026-04-20 15:33 39.21011 -107.79830 40186 ft 465 kts 252°
2026-04-20 15:33 39.18966 -107.87743 40167 ft 466 kts 252°
2026-04-20 15:34 39.16911 -107.95670 40155 ft 466 kts 252°
2026-04-20 15:34 39.14865 -108.03534 40147 ft 466 kts 252°
2026-04-20 15:35 39.12801 -108.11445 40152 ft 466 kts 252°
2026-04-20 15:35 39.10729 -108.19363 40162 ft 466 kts 252°
2026-04-20 15:36 39.08651 -108.27274 40184 ft 466 kts 252°
2026-04-20 15:36 39.06583 -108.35127 40198 ft 467 kts 252°
2026-04-20 15:37 39.04493 -108.43037 40212 ft 467 kts 252°
2026-04-20 15:37 39.02399 -108.50936 40215 ft 467 kts 252°
2026-04-20 15:38 39.00296 -108.58844 40204 ft 467 kts 252°
2026-04-20 15:38 38.98193 -108.66731 40187 ft 467 kts 252°
2026-04-20 15:39 38.96095 -108.74570 40160 ft 467 kts 251°
2026-04-20 15:39 38.93977 -108.82461 40131 ft 467 kts 251°
2026-04-20 15:40 38.91854 -108.90350 40099 ft 467 kts 251°
2026-04-20 15:40 38.89722 -108.98241 40096 ft 468 kts 251°
2026-04-20 15:41 38.87600 -109.06075 40091 ft 468 kts 251°
2026-04-20 15:41 38.85455 -109.13971 40089 ft 469 kts 251°
2026-04-20 15:42 38.83303 -109.21865 40089 ft 469 kts 251°
2026-04-20 15:42 38.81146 -109.29756 40092 ft 469 kts 251°
2026-04-20 15:43 38.78998 -109.37587 40110 ft 469 kts 251°
2026-04-20 15:43 38.76828 -109.45476 40132 ft 469 kts 251°
2026-04-20 15:44 38.74651 -109.53366 40146 ft 470 kts 251°
2026-04-20 15:44 38.72469 -109.61252 40171 ft 470 kts 251°
2026-04-20 15:45 38.70651 -109.67803 40178 ft 470 kts 251°
2026-04-20 15:46 38.65641 -109.85772 40162 ft 471 kts 251°
2026-04-20 15:46 38.63431 -109.93658 40145 ft 472 kts 251°
2026-04-20 15:47 38.61212 -110.01555 40131 ft 472 kts 251°
2026-04-20 15:47 38.58986 -110.09451 40115 ft 472 kts 251°
2026-04-20 15:48 38.56768 -110.17296 40102 ft 473 kts 251°
2026-04-20 15:48 38.54529 -110.25192 40105 ft 473 kts 251°
2026-04-20 15:49 38.52283 -110.33090 40134 ft 473 kts 251°
2026-04-20 15:49 38.50031 -110.40984 40158 ft 473 kts 251°
2026-04-20 15:50 38.47788 -110.48828 40190 ft 474 kts 251°
2026-04-20 15:50 38.45524 -110.56722 40221 ft 474 kts 251°
2026-04-20 15:51 38.43210 -110.64591 40230 ft 475 kts 248°
2026-04-20 15:51 38.39867 -110.71879 40239 ft 478 kts 237°
2026-04-20 15:52 38.35502 -110.78283 40241 ft 482 kts 228°
2026-04-20 15:52 38.30790 -110.84293 40202 ft 483 kts 227°
2026-04-20 15:53 38.23669 -110.93379 40157 ft 483 kts 228°
2026-04-20 15:53 38.18950 -110.99465 40114 ft 484 kts 228°
2026-04-20 15:54 38.14222 -111.05569 40097 ft 484 kts 228°
2026-04-20 15:54 38.09566 -111.11566 40093 ft 485 kts 228°
2026-04-20 15:55 38.04823 -111.17661 40094 ft 485 kts 228°
2026-04-20 15:55 38.00078 -111.23745 40096 ft 486 kts 228°
2026-04-20 15:56 37.95317 -111.29836 40098 ft 486 kts 228°
2026-04-20 15:56 37.90672 -111.35769 40092 ft 487 kts 228°
2026-04-20 15:57 37.85897 -111.41857 40085 ft 487 kts 229°
2026-04-20 15:57 37.81116 -111.47939 40090 ft 488 kts 228°
2026-04-20 15:58 37.76322 -111.54027 40094 ft 488 kts 228°
2026-04-20 15:58 37.71559 -111.60064 40090 ft 489 kts 228°
2026-04-20 15:59 37.66751 -111.66147 40089 ft 490 kts 228°
2026-04-20 15:59 37.61934 -111.72229 40091 ft 490 kts 228°
2026-04-20 16:00 37.57927 -111.77280 40105 ft 490 kts 229°
2026-04-20 16:00 37.52312 -111.84345 40124 ft 491 kts 229°
2026-04-20 16:01 37.47859 -111.90801 40140 ft 486 kts 237°
2026-04-20 16:01 37.43898 -111.97702 40130 ft 487 kts 237°
2026-04-20 16:02 37.40580 -112.03429 40120 ft 488 kts 237°
2026-04-20 16:02 37.35889 -112.11408 40098 ft 488 kts 237°
2026-04-20 16:03 37.32514 -112.17174 40086 ft 489 kts 237°
2026-04-20 16:03 37.27825 -112.25181 40078 ft 490 kts 237°
2026-04-20 16:04 37.24468 -112.30901 40082 ft 490 kts 237°
2026-04-20 16:04 37.19759 -112.38905 40074 ft 490 kts 237°
2026-04-20 16:05 37.16365 -112.44661 40072 ft 490 kts 237°
2026-04-20 16:05 37.12338 -112.51479 40070 ft 490 kts 237°
2026-04-20 16:06 37.08288 -112.58326 40063 ft 490 kts 237°
2026-04-20 16:06 37.04225 -112.65174 40086 ft 489 kts 237°
2026-04-20 16:07 37.00158 -112.72003 40125 ft 489 kts 237°
2026-04-20 16:07 36.96127 -112.78760 40148 ft 489 kts 237°
2026-04-20 16:08 36.92055 -112.85577 40173 ft 489 kts 236°
2026-04-20 16:08 36.87982 -112.92382 40180 ft 489 kts 236°
2026-04-20 16:09 36.83913 -112.99169 40175 ft 488 kts 236°
2026-04-20 16:09 36.79842 -113.05944 40150 ft 488 kts 236°
2026-04-20 16:10 36.75799 -113.12660 40116 ft 487 kts 236°
2026-04-20 16:10 36.71724 -113.19416 40079 ft 487 kts 236°
2026-04-20 16:11 36.67652 -113.26154 40029 ft 487 kts 236°
2026-04-20 16:11 36.63576 -113.32887 40012 ft 487 kts 236°
2026-04-20 16:12 36.59599 -113.39629 40011 ft 486 kts 238°
2026-04-20 16:12 36.55722 -113.46507 39996 ft 485 kts 238°
2026-04-20 16:13 36.51851 -113.53373 39994 ft 485 kts 238°
2026-04-20 16:13 36.47961 -113.60210 39979 ft 485 kts 237°
2026-04-20 16:14 36.44054 -113.67040 39991 ft 485 kts 237°
2026-04-20 16:14 36.40176 -113.73805 39962 ft 485 kts 237°
2026-04-20 16:15 36.36265 -113.80616 39960 ft 484 kts 237°
2026-04-20 16:15 36.32352 -113.87417 39948 ft 484 kts 237°
2026-04-20 16:16 36.28475 -113.94142 39935 ft 484 kts 237°
2026-04-20 16:16 36.24589 -114.00872 39930 ft 483 kts 237°
2026-04-20 16:17 36.20671 -114.07643 39922 ft 483 kts 237°
2026-04-20 16:17 36.16759 -114.14391 39908 ft 483 kts 237°
2026-04-20 16:18 36.12844 -114.21133 39912 ft 482 kts 237°
2026-04-20 16:18 36.08954 -114.27801 39904 ft 482 kts 236°
2026-04-20 16:19 36.04611 -114.34136 39898 ft 483 kts 231°
2026-04-20 16:19 36.00109 -114.40291 39895 ft 483 kts 230°
2026-04-20 16:20 35.95619 -114.46452 39920 ft 482 kts 231°
2026-04-20 16:20 35.91146 -114.52624 39926 ft 482 kts 231°
2026-04-20 16:21 35.86712 -114.58746 39958 ft 482 kts 231°
2026-04-20 16:21 35.82251 -114.64892 39959 ft 482 kts 230°
2026-04-20 16:22 35.77777 -114.71042 39995 ft 481 kts 230°
2026-04-20 16:22 35.73310 -114.77171 39982 ft 481 kts 230°
2026-04-20 16:23 35.68844 -114.83291 39991 ft 480 kts 230°
2026-04-20 16:23 35.64381 -114.89399 39988 ft 480 kts 230°
2026-04-20 16:24 35.59961 -114.95460 39972 ft 479 kts 230°
2026-04-20 16:24 35.55512 -115.01556 39982 ft 479 kts 230°
2026-04-20 16:25 35.51063 -115.07637 39997 ft 478 kts 230°
2026-04-20 16:25 35.46761 -115.13852 40000 ft 477 kts 233°
2026-04-20 16:26 35.42639 -115.20156 39996 ft 477 kts 233°
2026-04-20 16:26 35.38482 -115.26491 40012 ft 477 kts 233°
2026-04-20 16:27 35.34297 -115.32791 40015 ft 477 kts 232°
2026-04-20 16:27 35.30096 -115.39076 40007 ft 476 kts 232°
2026-04-20 16:28 35.25898 -115.45339 40022 ft 476 kts 232°
2026-04-20 16:28 35.21704 -115.51588 40016 ft 475 kts 232°
2026-04-20 16:29 35.17534 -115.57793 40022 ft 475 kts 232°
2026-04-20 16:29 35.13341 -115.64021 39997 ft 475 kts 232°
2026-04-20 16:30 35.11233 -115.67149 39696 ft 476 kts 232°
2026-04-20 16:30 35.09142 -115.70246 39330 ft 471 kts 232°
2026-04-20 16:30 35.07065 -115.73321 38990 ft 467 kts 232°
2026-04-20 16:30 35.05001 -115.76373 38646 ft 465 kts 232°
2026-04-20 16:31 35.02945 -115.79412 38239 ft 463 kts 232°
2026-04-20 16:31 35.00899 -115.82434 37826 ft 462 kts 232°
2026-04-20 16:31 34.98880 -115.85415 37429 ft 461 kts 231°
2026-04-20 16:31 34.96845 -115.88415 37034 ft 460 kts 231°
2026-04-20 16:32 34.94806 -115.91419 36642 ft 458 kts 231°
2026-04-20 16:32 34.92779 -115.94403 36267 ft 457 kts 231°
2026-04-20 16:32 34.90755 -115.97379 35781 ft 453 kts 231°
2026-04-20 16:32 34.88760 -116.00310 35277 ft 445 kts 230°
2026-04-20 16:33 34.86802 -116.03184 34794 ft 439 kts 230°
2026-04-20 16:33 34.84858 -116.06037 34326 ft 436 kts 230°
2026-04-20 16:33 34.82929 -116.08864 33849 ft 434 kts 229°
2026-04-20 16:33 34.81032 -116.11642 33320 ft 431 kts 229°
2026-04-20 16:34 34.79120 -116.14439 32793 ft 428 kts 229°
2026-04-20 16:34 34.77217 -116.17221 32284 ft 429 kts 229°
2026-04-20 16:34 34.75303 -116.20017 31794 ft 433 kts 229°
2026-04-20 16:34 34.73373 -116.22833 31304 ft 432 kts 229°
2026-04-20 16:35 34.71459 -116.25625 30819 ft 427 kts 229°
2026-04-20 16:35 34.69568 -116.28382 30332 ft 422 kts 229°
2026-04-20 16:35 34.67699 -116.31104 29819 ft 418 kts 229°
2026-04-20 16:35 34.65845 -116.33802 29251 ft 414 kts 229°
2026-04-20 16:36 34.64007 -116.36475 28729 ft 411 kts 229°
2026-04-20 16:36 34.62181 -116.39127 28198 ft 407 kts 229°
2026-04-20 16:36 34.60369 -116.41759 27682 ft 409 kts 229°
2026-04-20 16:36 34.58554 -116.44392 27197 ft 411 kts 229°
2026-04-20 16:37 34.56732 -116.47032 26691 ft 405 kts 229°
2026-04-20 16:37 34.54940 -116.49629 26198 ft 399 kts 229°
2026-04-20 16:37 34.53171 -116.52190 25698 ft 393 kts 229°
2026-04-20 16:37 34.51422 -116.54721 25213 ft 389 kts 229°
2026-04-20 16:38 34.49738 -116.57153 24770 ft 385 kts 229°
2026-04-20 16:38 34.48029 -116.59622 24303 ft 381 kts 229°
2026-04-20 16:38 34.46330 -116.62075 23846 ft 378 kts 229°
2026-04-20 16:38 34.44641 -116.64512 23364 ft 376 kts 229°
2026-04-20 16:39 34.42965 -116.66928 22851 ft 373 kts 229°
2026-04-20 16:39 34.41304 -116.69322 22386 ft 370 kts 229°
2026-04-20 16:39 34.39675 -116.71666 21921 ft 367 kts 229°
2026-04-20 16:39 34.38035 -116.74025 21463 ft 365 kts 229°
2026-04-20 16:40 34.36404 -116.76371 21020 ft 364 kts 229°
2026-04-20 16:40 34.34777 -116.78708 20569 ft 362 kts 229°
2026-04-20 16:40 34.33155 -116.81037 20137 ft 361 kts 229°
2026-04-20 16:40 34.31548 -116.83343 19708 ft 360 kts 229°
2026-04-20 16:41 34.29924 -116.85671 19296 ft 360 kts 229°
2026-04-20 16:41 34.28367 -116.87903 18899 ft 360 kts 229°
2026-04-20 16:41 34.26707 -116.90287 18479 ft 359 kts 229°
2026-04-20 16:41 34.25098 -116.92592 18039 ft 357 kts 229°
2026-04-20 16:42 34.23496 -116.94879 17605 ft 356 kts 229°
2026-04-20 16:42 34.21906 -116.97160 17144 ft 353 kts 230°
2026-04-20 16:42 34.20663 -116.99659 16646 ft 354 kts 246°
2026-04-20 16:42 34.19892 -117.02471 16252 ft 351 kts 250°
2026-04-20 16:43 34.19182 -117.05283 15853 ft 350 kts 251°
2026-04-20 16:43 34.18456 -117.08088 15370 ft 349 kts 250°
2026-04-20 16:43 34.17715 -117.10873 14946 ft 348 kts 249°
2026-04-20 16:43 34.16964 -117.13642 14507 ft 346 kts 249°
2026-04-20 16:44 34.16215 -117.16392 14080 ft 343 kts 249°
2026-04-20 16:44 34.15469 -117.19109 13642 ft 340 kts 249°
2026-04-20 16:44 34.14724 -117.21812 13170 ft 338 kts 249°
2026-04-20 16:44 34.13997 -117.24457 12713 ft 335 kts 249°
2026-04-20 16:45 34.13266 -117.27107 12265 ft 332 kts 249°
2026-04-20 16:45 34.12539 -117.29745 11832 ft 330 kts 249°
2026-04-20 16:45 34.11820 -117.32354 11443 ft 326 kts 249°
2026-04-20 16:45 34.11108 -117.34932 11083 ft 322 kts 249°
2026-04-20 16:46 34.10407 -117.37478 10717 ft 319 kts 249°
2026-04-20 16:46 34.09757 -117.40032 10363 ft 318 kts 251°
2026-04-20 16:46 34.09128 -117.42581 10058 ft 317 kts 251°
2026-04-20 16:46 34.08500 -117.45120 10009 ft 316 kts 250°
2026-04-20 16:47 34.07859 -117.47682 10010 ft 322 kts 250°
2026-04-20 16:47 34.07220 -117.50279 9996 ft 323 kts 252°
2026-04-20 16:47 34.06716 -117.52881 9996 ft 323 kts 256°
2026-04-20 16:47 34.06284 -117.55487 9992 ft 324 kts 256°
2026-04-20 16:48 34.05872 -117.58052 9635 ft 329 kts 256°
2026-04-20 16:48 34.05435 -117.60756 9100 ft 328 kts 256°
2026-04-20 16:48 34.04997 -117.63441 8621 ft 325 kts 256°
2026-04-20 16:48 34.04556 -117.66114 8118 ft 324 kts 256°
2026-04-20 16:49 34.04112 -117.68768 7635 ft 320 kts 256°
2026-04-20 16:49 34.03689 -117.71291 7118 ft 297 kts 256°
2026-04-20 16:49 34.03286 -117.73685 6637 ft 287 kts 256°
2026-04-20 16:49 34.02883 -117.76040 6154 ft 287 kts 256°
2026-04-20 16:50 34.02480 -117.78395 5668 ft 285 kts 256°
2026-04-20 16:50 34.02077 -117.80668 5190 ft 283 kts 257°
2026-04-20 16:50 34.01684 -117.82990 4679 ft 282 kts 257°
2026-04-20 16:50 34.01374 -117.84822 4319 ft 275 kts 257°
2026-04-20 16:51 34.01012 -117.86960 4169 ft 254 kts 257°
2026-04-20 16:51 34.00667 -117.88984 4115 ft 241 kts 257°
2026-04-20 16:51 34.00335 -117.90934 3689 ft 234 kts 257°
2026-04-20 16:51 34.00015 -117.92799 3416 ft 218 kts 257°
2026-04-20 16:52 33.99711 -117.94565 3570 ft 218 kts 257°
2026-04-20 16:52 33.99401 -117.96369 3825 ft 219 kts 257°
2026-04-20 16:52 33.99096 -117.98147 3915 ft 211 kts 257°
2026-04-20 16:52 33.98808 -117.99825 3934 ft 199 kts 257°
2026-04-20 16:53 33.98535 -118.01402 3964 ft 192 kts 257°
2026-04-20 16:53 33.98263 -118.02982 4014 ft 195 kts 257°
2026-04-20 16:53 33.97984 -118.04595 4005 ft 198 kts 256°
2026-04-20 16:53 33.97704 -118.06222 4004 ft 198 kts 257°
2026-04-20 16:54 33.97424 -118.07842 4006 ft 198 kts 256°
2026-04-20 16:54 33.97148 -118.09433 4001 ft 197 kts 256°
2026-04-20 16:54 33.96908 -118.10804 3998 ft 196 kts 255°
2026-04-20 16:54 33.96568 -118.12394 4011 ft 197 kts 254°
2026-04-20 16:55 33.96292 -118.13959 3986 ft 188 kts 258°
2026-04-20 16:55 33.96092 -118.15515 3847 ft 190 kts 260°
2026-04-20 16:55 33.95920 -118.17078 3612 ft 187 kts 261°
2026-04-20 16:55 33.95759 -118.18623 3370 ft 184 kts 262°
2026-04-20 16:56 33.95604 -118.20127 3161 ft 179 kts 262°
2026-04-20 16:56 33.95450 -118.21627 2924 ft 180 kts 262°
2026-04-20 16:56 33.95299 -118.23100 2671 ft 174 kts 262°
2026-04-20 16:56 33.95156 -118.24488 2468 ft 161 kts 262°
2026-04-20 16:57 33.95022 -118.25792 2252 ft 160 kts 262°
2026-04-20 16:57 33.94965 -118.26343 2163 ft 160 kts 262°
2026-04-20 16:57 33.94829 -118.27673 1951 ft 160 kts 262°
2026-04-20 16:57 33.94692 -118.29000 1742 ft 159 kts 262°
2026-04-20 16:58 33.94564 -118.30255 1511 ft 143 kts 262°
2026-04-20 16:58 33.94446 -118.31398 1319 ft 133 kts 262°
2026-04-20 16:58 33.94334 -118.32487 1140 ft 131 kts 262°
2026-04-20 16:58 33.94221 -118.33583 943 ft 133 kts 263°
2026-04-20 16:59 33.94116 -118.34687 708 ft 131 kts 263°
2026-04-20 16:59 33.94000 -118.35770 573 ft 130 kts 263°
2026-04-20 16:59 33.93882 -118.36856 406 ft 132 kts 262°
2026-04-20 16:59 33.93772 -118.37935 227 ft 132 kts 263°
2026-04-20 17:00 33.93572 -118.39887 129 ft 81 kts 263°
2026-04-20 17:00 33.93542 -118.40400 127 ft 50 kts 277°
2026-04-20 17:00 33.93596 -118.40695 125 ft 30 kts 273°
2026-04-20 17:01 33.93594 -118.40764 127 ft 0 kts 265°
2026-04-20 17:05 33.93598 -118.40809 127 ft 11 kts 288°
2026-04-20 17:05 33.93655 -118.40887 125 ft 15 kts 336°
2026-04-20 17:05 33.93762 -118.40927 127 ft 4 kts 317°
2026-04-20 17:06 33.93779 -118.40969 125 ft 11 kts 278°
2026-04-20 17:06 33.93772 -118.41063 130 ft 11 kts 263°
2026-04-20 17:06 33.93789 -118.41148 125 ft 11 kts 321°
2026-04-20 17:06 33.93879 -118.41166 127 ft 6 kts 354°
2026-04-20 17:07 33.93920 -118.41152 125 ft 6 kts 24°
2026-04-20 17:07 33.93938 -118.41107 126 ft 6 kts 84°
2026-04-20 17:07 33.93941 -118.41063 129 ft 2 kts 85°
2026-04-20 17:07 33.93941 -118.41062 129 ft 0 kts 85°